Regional Weather Roundup
Issued by NWS

Home | Current Version | Previous Version | Text Only | Print | Product List | Glossary Off
Versions: 1 2 3 4 5 6 7 8 9 10 11 12 13 14 15 16 17 18 19 20 21 22 23 24 25 26 27 28 29 30 31 32 33 34 35 36 37 38 39 40 41 42 43 44 45 46 47 48 49 50

000
ASUS43 KTOP 221808
RWRKS

WEATHER ROUNDUP FOR KANSAS
NATIONAL WEATHER SERVICE GOODLAND KS
100 PM CDT WED OCT 22 2014

NOTE:  "FAIR" INDICATES FEW OR NO CLOUDS BELOW 12,000 FEET WITH NO
SIGNIFICANT WEATHER AND/OR OBSTRUCTIONS TO VISIBILITY.

KSZ001>006-013>018-027>032-041>047-221900-
NORTHWEST KANSAS

CITY           SKY/WX    TMP DP  RH WIND       PRES   REMARKS
GOODLAND       MOSUNNY   69  47  45 N16       30.06R
6HR MIN TEMP:  49; 6HR MAX TEMP:  69; 6HR PCP: TRACE;

HAYS           CLOUDY    68  55  64 S15       30.03F
HILL CITY      PTSUNNY   69  55  60 S12       30.01F
6HR MIN TEMP:  58; 6HR MAX TEMP:  69; 6HR PCP: TRACE;

RUSSELL        PTSUNNY   75  53  46 S17G30    30.02F
6HR MIN TEMP:  55; 6HR MAX TEMP:  76;

$$

KSZ061>065-074>080-084>089-221900-
SOUTHWEST KANSAS

CITY           SKY/WX    TMP DP  RH WIND       PRES   REMARKS
DODGE CITY     FAIR      69  55  60 S18G31    30.05F
6HR MIN TEMP:  53; 6HR MAX TEMP:  69; 6HR PCP:  0.02;

ELKHART          N/A     72  52  49 SW10        N/A
GARDEN CITY    FAIR      70  55  59 SW21G29   30.03S
6HR MIN TEMP:  57; 6HR MAX TEMP:  70;

GREAT BEND     FAIR      75  54  46 S26G33    30.04F
LIBERAL        FAIR      70  55  60 S22       30.08S
PRATT          FAIR      75  48  38 S22G29    30.09F
$$

KSZ066>073-081>083-090>101-221900-
SOUTHEAST KANSAS

CITY           SKY/WX    TMP DP  RH WIND       PRES   REMARKS
CHANUTE        FAIR      74  61  63 S8        30.15F
6HR MIN TEMP:  56; 6HR MAX TEMP:  75;

COFFEYVILLE    FAIR      75  62  64 S12       30.15F
6HR MIN TEMP:  55; 6HR MAX TEMP:  75;

HUTCHINSON     FAIR      78  52  40 S21G26    30.09F
6HR MIN TEMP:  55; 6HR MAX TEMP:  78; 6HR PCP: TRACE;

MEDICINE LODGE   N/A     77  51  40 S15G24    30.08F
NEWTON         FAIR      75  52  43 S22G28    30.12F
PARSONS        FAIR      76  62  62 S7        30.16F
6HR MIN TEMP:  60; 6HR MAX TEMP:  76;

WICHITA INTL   FAIR      78  53  41 S23       30.10F
6HR MIN TEMP:  57; 6HR MAX TEMP:  78;

WICHITA JABRA  FAIR      77  55  46 S21G30    30.10F
6HR MIN TEMP:  53; 6HR MAX TEMP:  77;

WICHITA MCCONL FAIR      77  56  48 S21G29    30.11F
WINFIELD       FAIR      75  59  57 S17       30.13F
6HR MIN TEMP:  59; 6HR MAX TEMP:  77;

$$

KSZ007>012-019>026-033>040-048>060-102>105-221900-
NORTHEAST KANSAS

CITY           SKY/WX    TMP DP  RH WIND       PRES   REMARKS
CONCORDIA      FAIR      76  56  49 S17G26    30.05F
6HR MIN TEMP:  55; 6HR MAX TEMP:  76;

EMPORIA        FAIR      75  59  57 S14G24    30.13F
6HR MIN TEMP:  51; 6HR MAX TEMP:  75; 6HR PCP: TRACE;

LAWRENCE       FAIR      70  53  54 SE13      30.15F
6HR MIN TEMP:  51; 6HR MAX TEMP:  70;

MANHATTAN      FAIR      79  55  43 S15G21    30.08F
6HR MIN TEMP:  56; 6HR MAX TEMP:  79;

MARYSVILLE     FAIR      75  55  50 S14G22    30.07F
OLATHE IND     FAIR      69  54  58 SE12      30.17F
6HR MIN TEMP:  52; 6HR MAX TEMP:  69;

OLATHE EXE     FAIR      67  53  61 SE12      30.16F
6HR MIN TEMP:  53; 6HR MAX TEMP:  67;

SALINA         FAIR      77  55  46 S20G28    30.07F
6HR MIN TEMP:  58; 6HR MAX TEMP:  77; 6HR PCP: TRACE;

TOPEKA BILLARD FAIR      73  57  57 SE12      30.13F
6HR MIN TEMP:  52; 6HR MAX TEMP:  74;

TOPEKA FORBES  FAIR      74  57  55 S13       30.13F
6HR MIN TEMP:  53; 6HR MAX TEMP:  74;

$$



USA.gov is the U.S. government's official web portal to all federal, state and local government web resources and services.